EW3012 Livadea RO current weather conditions

sailwx.info

Last reported at 2018-Jul-11 09:30 UTC.
Time now 2018-Oct-23 11:36 UTC

Location: N 45°12' E 025°55'.
View on Google Maps.

See reports from other nearby stations

  
Tides and Currents Weather Stations Pressure Air Temp Water Temp Dewpoint Dewpoint Depression Visibility Wind Speed Wind Dir Waves Ship Positions
date/time (UTC)wind fromknots sea level pressurealtimeterstation pressurevisibilityair tempwater tempwave heightnotes
2018-Oct-23 11:08 025 1 gusting 4 17.8
2018-Oct-23 11:02 047 1 gusting 5 17.8
2018-Oct-23 10:57 114 1 gusting 5 18.3
2018-Oct-23 10:52 132 2 gusting 6 18.3
2018-Oct-23 10:47 075 2 gusting 6 18.3
2018-Oct-23 10:42 105 2 gusting 5 17.8
2018-Oct-23 10:37 098 2 gusting 8 17.8
2018-Oct-23 10:31 120 3 gusting 8 17.8
2018-Oct-23 10:26 113 2 gusting 7 17.8
2018-Oct-23 10:21 155 2 gusting 7 17.2
2018-Oct-23 10:16 342 2 gusting 6 17.2
2018-Oct-23 10:11 127 2 gusting 6 17.2
2018-Oct-23 10:06 108 2 gusting 6 17.2
2018-Oct-23 10:00 144 2 gusting 5 17.2
2018-Oct-23 09:55 145 2 gusting 6 16.7
2018-Oct-23 09:50 135 2 gusting 7 16.7
2018-Oct-23 09:45 139 2 gusting 7 16.7
2018-Oct-23 09:40 133 2 gusting 6 16.7
2018-Oct-23 09:35 078 2 gusting 6 16.7
2018-Oct-23 09:30 091 2 gusting 6 16.7
2018-Oct-23 09:24 127 2 gusting 6 16.7
2018-Oct-23 09:19 119 3 gusting 7 16.1
2018-Oct-23 09:14 067 2 gusting 7 16.1
2018-Oct-23 09:09 139 2 gusting 6 16.1
2018-Oct-23 09:04 174 1 gusting 5 16.1
2018-Oct-23 08:59 026 1 gusting 5 16.1
2018-Oct-23 08:53 136 1 gusting 4 15.6
2018-Oct-23 08:48 131 1 gusting 5 15.6
2018-Oct-23 08:43 148 1 gusting 5 15.6
2018-Oct-23 08:38 136 1 gusting 3 15.6
2018-Oct-23 08:33 104 1 gusting 3 15.6
2018-Oct-23 08:28 144 1 gusting 2 15.6
2018-Oct-23 08:23 149 0 gusting 2 15.0
2018-Oct-23 08:17 152 0 gusting 1 15.0
2018-Oct-23 08:12 184 0 gusting 1 14.4
2018-Oct-23 08:07 056 0 gusting 2 14.4
2018-Oct-23 08:02 132 13.9
2018-Oct-23 07:57 041 13.3
2018-Oct-23 07:52 124 13.3
2018-Oct-23 07:46 169 0 gusting 1 12.8
2018-Oct-23 07:41 166 12.2
2018-Oct-23 07:36 136 11.7
2018-Oct-23 07:31 135 0 gusting 2 11.1
2018-Oct-23 07:26 146 0 gusting 2 10.6
2018-Oct-23 07:21 041 0 gusting 2 10.0
2018-Oct-23 07:15 122 10.0
2018-Oct-23 07:10 228 0 gusting 3 9.4
2018-Oct-23 07:05 240 1 gusting 3 8.3
2018-Oct-23 07:00 259 1 gusting 3 8.3
2018-Oct-23 06:55 243 1 gusting 3 8.3
2018-Oct-23 06:50 229 1 gusting 3 7.8
2018-Oct-23 06:44 250 0 gusting 2 7.2
2018-Oct-23 06:39 218 1 gusting 3 7.2
2018-Oct-23 06:34 249 1 gusting 3 6.7
2018-Oct-23 06:30 271 0 gusting 2 6.1
2018-Oct-23 06:24 262 0 gusting 1 5.6
2018-Oct-23 06:19 235 5.6
2018-Oct-23 06:13 237 5.6
2018-Oct-23 06:08 165 5.0
2018-Oct-23 06:03 290 5.0
2018-Oct-23 05:58 290 4.4
2018-Oct-23 05:53 291 4.4
2018-Oct-23 05:48 264 3.9
2018-Oct-23 05:43 264 3.9
2018-Oct-23 05:37 264 3.3
2018-Oct-23 05:32 276 3.3
2018-Oct-23 05:27 270 2.8
2018-Oct-23 05:22 270 2.8
2018-Oct-23 05:17 269 2.8
2018-Oct-23 05:12 269 2.8
2018-Oct-23 05:07 269 2.8
2018-Oct-23 05:01 270 2.8
2018-Oct-23 04:56 269 2.8
2018-Oct-23 04:51 270 2.8
2018-Oct-23 04:46 269 2.8
2018-Oct-23 04:41 271 2.8
2018-Oct-23 04:36 267 2.8
2018-Oct-23 04:31 267 3.3
2018-Oct-23 04:25 267 3.3
2018-Oct-23 04:20 267 3.3
2018-Oct-23 04:15 255 3.3
2018-Oct-23 04:10 274 3.3
2018-Oct-23 04:05 274 3.3
2018-Oct-23 03:59 274 0 gusting 0 3.3
2018-Oct-23 03:54 274 0 gusting 1 3.3
2018-Oct-23 03:49 274 3.9
2018-Oct-23 03:44 236 3.9
2018-Oct-23 03:39 236 0 gusting 2 3.9
2018-Oct-23 03:33 283 3.9
2018-Oct-23 03:27 225 3.9
2018-Oct-23 03:22 225 3.9
2018-Oct-23 03:17 225 3.9
2018-Oct-23 03:12 224 3.9
2018-Oct-23 03:07 226 3.9
2018-Oct-23 03:02 226 1 gusting 4 4.4
2018-Oct-23 02:57 258 1 gusting 4 4.4
2018-Oct-23 02:51 255 0 gusting 3 3.9
2018-Oct-23 02:46 253 3.3
2018-Oct-23 02:41 253 3.3
2018-Oct-23 02:36 253 3.3
2018-Oct-23 02:31 253 3.3
2018-Oct-23 02:25 253 3.3
2018-Oct-23 02:20 256 3.3
2018-Oct-23 02:15 243 3.3
2018-Oct-23 02:10 243 3.3
2018-Oct-23 02:05 230 3.3
2018-Oct-23 01:59 248 3.3
2018-Oct-23 01:54 270 3.9
2018-Oct-23 01:49 269 3.3
2018-Oct-23 01:44 270 3.3
2018-Oct-23 01:39 277 3.9
2018-Oct-23 01:34 276 3.9
2018-Oct-23 01:28 276 3.9
2018-Oct-23 01:23 277 3.9
2018-Oct-23 01:18 277 3.9
2018-Oct-23 01:13 277 3.9
2018-Oct-23 01:08 242 3.9
2018-Oct-23 01:03 241 3.9
2018-Oct-23 00:57 239 3.9
2018-Oct-23 00:52 240 3.9
2018-Oct-23 00:47 240 3.3
2018-Oct-23 00:42 240 3.3
2018-Oct-23 00:37 239 3.3
2018-Oct-23 00:32 240 3.3
2018-Oct-23 00:26 240 0 gusting 2 3.3
2018-Oct-23 00:21 238 0 gusting 3 3.3
2018-Oct-23 00:16 255 3.3
2018-Oct-23 00:11 248 2.8
2018-Oct-23 00:06 248 0 gusting 2 2.8
2018-Oct-23 00:01 248 0 gusting 2 2.8
2018-Oct-22 23:56 232 2.8
2018-Oct-22 23:50 255 2.8
2018-Oct-22 23:45 290 2.8
2018-Oct-22 23:40 290 2.8
2018-Oct-22 23:35 292 2.8
2018-Oct-22 23:30 232 2.2
2018-Oct-22 23:25 232 2.2
2018-Oct-22 23:19 232 2.2
2018-Oct-22 23:14 229 2.2
2018-Oct-22 23:09 293 2.2
2018-Oct-22 23:04 293 2.8
2018-Oct-22 22:59 292 2.8
2018-Oct-22 22:53 291 2.8
2018-Oct-22 22:48 318 2.8
2018-Oct-22 22:43 319 2.8
2018-Oct-22 22:38 319 2.8
2018-Oct-22 22:33 319 2.8
2018-Oct-22 22:28 319 2.8
2018-Oct-22 22:22 319 2.8
2018-Oct-22 22:17 319 2.8
2018-Oct-22 22:12 319 2.8
2018-Oct-22 22:07 319 2.8
2018-Oct-22 22:02 319 2.8
2018-Oct-22 21:57 319 2.8
2018-Oct-22 21:51 319 3.3
2018-Oct-22 21:46 319 3.3
2018-Oct-22 21:41 319 3.3
2018-Oct-22 21:36 319 3.3
2018-Oct-22 21:31 319 3.3
2018-Oct-22 21:26 319 3.9
2018-Oct-22 21:20 319 3.9
2018-Oct-22 21:15 319 0 gusting 4 3.9
2018-Oct-22 21:10 319 0 gusting 4 4.4
2018-Oct-22 21:05 248 0 gusting 1 3.9
2018-Oct-22 21:00 246 0 gusting 1 4.4
2018-Oct-22 20:49 287 3.9
2018-Oct-22 20:44 276 3.9
2018-Oct-22 20:34 249 3.9
2018-Oct-22 20:29 249 3.9
2018-Oct-22 20:24 249 3.9
2018-Oct-22 20:18 280 3.9
2018-Oct-22 20:13 280 4.4
2018-Oct-22 20:08 280 4.4
2018-Oct-22 20:03 280 4.4
2018-Oct-22 19:58 279 4.4
2018-Oct-22 19:53 280 4.4
2018-Oct-22 19:48 280 4.4
2018-Oct-22 19:42 281 4.4
2018-Oct-22 19:37 281 5.0
2018-Oct-22 19:32 281 5.0
2018-Oct-22 19:27 278 5.0
2018-Oct-22 19:22 008 5.0
2018-Oct-22 19:17 008 5.0
2018-Oct-22 19:12 009 5.0
2018-Oct-22 19:07 009 5.0
2018-Oct-22 19:02 008 5.0
2018-Oct-22 18:56 009 5.6
2018-Oct-22 18:51 008 5.6
2018-Oct-22 18:46 008 5.6
2018-Oct-22 18:41 305 5.6
2018-Oct-22 18:36 306 5.6
2018-Oct-22 18:31 307 5.6
2018-Oct-22 18:26 264 5.6
2018-Oct-22 18:21 264 5.6
2018-Oct-22 18:16 264 5.6
2018-Oct-22 18:10 264 6.1
2018-Oct-22 18:05 264 6.1
2018-Oct-22 18:00 264 6.1
2018-Oct-22 17:55 264 6.1
2018-Oct-22 17:50 264 6.1
2018-Oct-22 17:45 264 6.1
2018-Oct-22 17:40 264 6.7
2018-Oct-22 17:35 264 6.7
2018-Oct-22 17:30 264 6.7
2018-Oct-22 17:25 264 6.7
2018-Oct-22 17:20 266 6.7
2018-Oct-22 17:14 032 6.7
2018-Oct-22 17:09 032 7.2
2018-Oct-22 17:04 044 7.2
2018-Oct-22 16:59 044 7.2
2018-Oct-22 16:54 044 7.2
2018-Oct-22 16:49 044 7.2
2018-Oct-22 16:44 046 7.8
2018-Oct-22 16:38 047 7.8
2018-Oct-22 16:33 046 7.8
2018-Oct-22 16:28 046 8.3
2018-Oct-22 16:23 047 8.3
2018-Oct-22 16:18 047 8.3
2018-Oct-22 16:13 047 8.9
2018-Oct-22 16:08 047 8.9
2018-Oct-22 16:03 047 9.4
2018-Oct-22 15:57 047 9.4
2018-Oct-22 15:52 047 10.0
2018-Oct-22 15:47 046 10.0
2018-Oct-22 15:42 047 10.6
2018-Oct-22 15:37 047 10.6
2018-Oct-22 15:32 047 11.1
2018-Oct-22 15:27 047 11.1
2018-Oct-22 15:22 047 11.7
2018-Oct-22 15:17 046 12.2
2018-Oct-22 15:11 046 0 gusting 1 12.2
2018-Oct-22 15:06 047 0 gusting 1 12.8
2018-Oct-22 15:01 049 12.8
2018-Oct-22 14:56 049 13.3
2018-Oct-22 14:51 049 0 gusting 2 13.3
2018-Oct-22 14:46 065 0 gusting 2 13.3
2018-Oct-22 14:41 165 0 gusting 2 13.9
2018-Oct-22 14:36 166 0 gusting 2 13.9
2018-Oct-22 14:31 131 0 gusting 3 14.4
2018-Oct-22 14:25 132 0 gusting 3 14.4
2018-Oct-22 14:20 143 0 gusting 2 14.4
2018-Oct-22 14:15 134 0 gusting 3 14.4
2018-Oct-22 14:10 108 0 gusting 3 14.4
2018-Oct-22 14:05 134 0 gusting 4 15.0
2018-Oct-22 14:00 152 0 gusting 4 15.0
2018-Oct-22 13:55 120 0 gusting 2 15.0
2018-Oct-22 13:50 063 0 gusting 2 15.0
2018-Oct-22 13:45 145 0 gusting 3 15.0
2018-Oct-22 13:39 136 0 gusting 3 15.0
2018-Oct-22 13:34 064 0 gusting 3 15.0
2018-Oct-22 13:29 117 1 gusting 3 15.0
2018-Oct-22 13:24 076 1 gusting 5 15.0
2018-Oct-22 13:19 188 2 gusting 5 15.0
2018-Oct-22 13:14 060 1 gusting 5 15.0
2018-Oct-22 13:09 136 1 gusting 4 15.0
2018-Oct-22 13:04 121 1 gusting 5 15.0
2018-Oct-22 12:59 077 1 gusting 5 15.6
2018-Oct-22 12:54 129 0 gusting 3 15.6
2018-Oct-22 12:48 235 0 gusting 3 15.6
2018-Oct-22 12:43 163 0 gusting 4 15.6
2018-Oct-22 12:38 226 1 gusting 4 15.6
2018-Oct-22 12:33 155 1 gusting 5 15.0
2018-Oct-22 12:28 162 1 gusting 5 15.0
2018-Oct-22 12:23 145 1 gusting 4 15.0
2018-Oct-22 12:18 068 2 gusting 6 15.6
2018-Oct-22 12:13 067 1 gusting 6 15.6
2018-Oct-22 12:07 204 1 gusting 3 15.6
2018-Oct-22 12:02 019 1 gusting 3 15.6
2018-Oct-22 11:57 135 1 gusting 4 15.6
2018-Oct-22 11:52 095 1 gusting 5 15.6
2018-Oct-22 11:47 220 1 gusting 3 15.0
2018-Oct-22 11:42 139 1 gusting 6 15.0
2018-Oct-22 11:37 158 1 gusting 6 15.0
2018-Oct-22 11:31 143 0 gusting 2 15.6
2018-Oct-22 11:26 135 2 gusting 6 15.6
2018-Oct-22 11:21 035 2 gusting 6 15.6
2018-Oct-22 11:16 188 1 gusting 5 15.6
2018-Oct-22 11:11 153 1 gusting 6 15.6
2018-Oct-22 11:06 162 1 gusting 5 15.6
2018-Oct-22 11:01 041 1 gusting 5 15.0
2018-Oct-22 10:55 228 2 gusting 5 15.0
2018-Oct-22 10:50 135 2 gusting 5 15.0
2018-Oct-22 10:45 151 2 gusting 5 15.0
2018-Oct-22 10:40 119 1 gusting 5 15.0
2018-Oct-22 10:35 141 2 gusting 5 15.0
2018-Oct-22 10:20 139 0 gusting 6 14.4
2018-Oct-22 10:15 344 0 gusting 6 14.4
2018-Oct-22 10:10 221 0 gusting 3 14.4
2018-Oct-22 10:05 136 0 gusting 3 15.0
2018-Oct-22 09:59 061 0 gusting 2 15.0
2018-Oct-22 09:54 096 1 gusting 4 15.0
2018-Oct-22 09:49 180 1 gusting 4 14.4
2018-Oct-22 09:44 115 0 gusting 2 15.0
2018-Oct-22 09:39 211 0 gusting 3 15.0
2018-Oct-22 09:34 149 1 gusting 4 14.4
2018-Oct-22 09:29 131 1 gusting 4 14.4
2018-Oct-22 09:23 200 1 gusting 3 13.9
2018-Oct-22 09:18 148 1 gusting 3 13.9
2018-Oct-22 09:13 124 1 gusting 3 13.9
2018-Oct-22 09:08 097 0 gusting 3 13.3
2018-Oct-22 09:03 252 0 gusting 1 13.3
2018-Oct-22 08:57 236 0 gusting 1 13.3
2018-Oct-22 08:52 132 0 gusting 3 13.3
2018-Oct-22 08:47 129 0 gusting 3 13.3
2018-Oct-22 08:42 231 1 gusting 3 13.3
2018-Oct-22 08:37 150 1 gusting 3 13.3
2018-Oct-22 08:32 122 0 gusting 2 13.3
2018-Oct-22 08:27 176 0 gusting 3 13.3
2018-Oct-22 08:21 127 1 gusting 3 13.3
2018-Oct-22 08:16 231 1 gusting 4 13.3
2018-Oct-22 08:11 134 1 gusting 4 13.3
2018-Oct-22 08:06 051 1 gusting 3 13.3
2018-Oct-22 08:01 260 1 gusting 3 13.3
2018-Oct-22 07:56 091 1 gusting 3 12.8
2018-Oct-22 07:50 076 0 gusting 2 13.3
2018-Oct-22 07:45 124 0 gusting 2 13.3
2018-Oct-22 07:40 152 0 gusting 1 13.3
2018-Oct-22 07:35 188 13.3
2018-Oct-22 07:30 149 13.3
2018-Oct-22 07:25 023 12.8
2018-Oct-22 07:20 255 12.8
2018-Oct-22 07:14 298 0 gusting 1 12.2
2018-Oct-22 07:09 071 0 gusting 1 12.2
2018-Oct-22 07:04 226 12.2
2018-Oct-22 06:59 252 0 gusting 1 11.7
2018-Oct-22 06:54 238 0 gusting 1 11.7
2018-Oct-22 06:49 248 11.7
2018-Oct-22 06:43 204 0 gusting 1 11.1
2018-Oct-22 06:38 217 0 gusting 2 10.6
2018-Oct-22 06:33 243 0 gusting 2 10.0
2018-Oct-22 06:28 240 0 gusting 1 9.4
2018-Oct-22 06:23 273 0 gusting 1 9.4
2018-Oct-22 06:18 252 9.4
2018-Oct-22 06:13 258 9.4
2018-Oct-22 06:07 258 8.9
2018-Oct-22 06:02 269 8.9
2018-Oct-22 05:57 274 0 gusting 3 8.9
2018-Oct-22 05:52 252 0 gusting 3 8.3
2018-Oct-22 05:47 256 1 gusting 3 8.3
2018-Oct-22 05:42 261 0 gusting 2 8.3
2018-Oct-22 05:36 245 0 gusting 2 8.3
2018-Oct-22 05:31 245 8.3
2018-Oct-22 05:26 267 8.3
2018-Oct-22 05:21 304 8.3
2018-Oct-22 05:16 306 0 gusting 2 8.3
2018-Oct-22 05:10 315 1 gusting 3 8.3
2018-Oct-22 05:05 278 1 gusting 3 8.3
2018-Oct-22 05:00 250 1 gusting 3 8.3
2018-Oct-22 04:55 240 1 gusting 5 8.3
2018-Oct-22 04:50 243 1 gusting 3 8.3
2018-Oct-22 04:44 259 1 gusting 4 8.3
2018-Oct-22 04:39 262 1 gusting 3 8.3
2018-Oct-22 04:34 260 1 gusting 2 8.3
2018-Oct-22 04:29 225 0 gusting 3 8.3
2018-Oct-22 04:24 273 1 gusting 5 8.9
2018-Oct-22 04:19 297 2 gusting 5 8.9
2018-Oct-22 04:13 286 1 gusting 4 8.9
2018-Oct-22 04:08 276 1 gusting 3 8.9
2018-Oct-22 04:03 262 0 gusting 2 8.3
2018-Oct-22 03:58 246 0 gusting 1 8.3
2018-Oct-22 03:53 259 0 gusting 1 8.3
2018-Oct-22 03:48 269 8.9
2018-Oct-22 03:43 249 8.9
2018-Oct-22 03:38 253 8.9
2018-Oct-22 03:32 248 8.9
2018-Oct-22 03:27 250 0 gusting 3 8.9
2018-Oct-22 03:22 256 0 gusting 3 8.9
2018-Oct-22 03:17 235 8.9
2018-Oct-22 03:12 257 8.9
2018-Oct-22 03:07 259 9.4
2018-Oct-22 03:01 248 9.4
2018-Oct-22 02:56 252 9.4
2018-Oct-22 02:51 253 0 gusting 1 9.4
2018-Oct-22 02:46 248 0 gusting 2 9.4
2018-Oct-22 02:41 259 0 gusting 2 8.9
2018-Oct-22 02:36 249 0 gusting 1 9.4
2018-Oct-22 02:31 249 9.4
2018-Oct-22 02:25 255 9.4
2018-Oct-22 02:20 256 9.4
2018-Oct-22 02:15 276 9.4
2018-Oct-22 02:10 276 9.4
2018-Oct-22 02:05 273 9.4
2018-Oct-22 01:54 276 9.4
2018-Oct-22 01:49 276 9.4
2018-Oct-22 01:44 276 9.4
2018-Oct-22 01:39 276 10.0
2018-Oct-22 01:29 276 10.0
2018-Oct-22 01:23 276 10.0
2018-Oct-22 01:18 276 10.0
2018-Oct-22 01:13 328 10.0
2018-Oct-22 01:08 328 10.0
2018-Oct-22 01:02 329 10.0
2018-Oct-22 00:57 328 10.0
2018-Oct-22 00:52 328 10.0
2018-Oct-22 00:47 328 10.0
2018-Oct-22 00:42 329 10.0
2018-Oct-22 00:36 328 10.0
2018-Oct-22 00:31 328 10.0
2018-Oct-22 00:26 329 10.0
2018-Oct-22 00:21 328 10.0
2018-Oct-22 00:16 328 10.0
2018-Oct-22 00:11 328 10.0
2018-Oct-22 00:06 328 10.0
2018-Oct-22 00:00 328 10.0
2018-Oct-21 23:55 328 10.0
2018-Oct-21 23:50 263 10.0
2018-Oct-21 23:45 263 10.0
2018-Oct-21 23:40 262 10.0
2018-Oct-21 23:35 290 10.0
2018-Oct-21 23:30 290 10.0
2018-Oct-21 23:24 289 10.0
2018-Oct-21 23:19 289 10.0
2018-Oct-21 23:14 290 10.0
2018-Oct-21 23:09 290 10.0
2018-Oct-21 23:04 289 10.0
2018-Oct-21 22:59 290 10.0
2018-Oct-21 22:53 290 10.0
2018-Oct-21 22:48 290 10.0
2018-Oct-21 22:43 290 10.0
2018-Oct-21 22:38 289 10.0
2018-Oct-21 22:33 290 10.0
2018-Oct-21 22:28 290 10.0
2018-Oct-21 22:22 290 10.0
2018-Oct-21 22:17 290 10.0
2018-Oct-21 22:12 290 10.0
2018-Oct-21 22:07 290 10.0
2018-Oct-21 22:02 290 0 gusting 2 10.0
2018-Oct-21 21:56 312 0 gusting 2 10.0
2018-Oct-21 21:51 346 1 gusting 3 10.0
2018-Oct-21 21:46 307 1 gusting 3 10.0
2018-Oct-21 21:41 294 1 gusting 3 10.0
2018-Oct-21 21:36 274 2 gusting 3 10.0
2018-Oct-21 21:31 271 2 gusting 3 10.0
2018-Oct-21 21:26 235 2 gusting 4 10.0
2018-Oct-21 21:20 306 1 gusting 4 10.0
2018-Oct-21 21:15 267 1 gusting 4 10.0
2018-Oct-21 21:10 265 2 gusting 5 10.0
2018-Oct-21 21:05 284 2 gusting 5 10.0
2018-Oct-21 21:00 321 2 gusting 6 10.0
2018-Oct-21 20:55 295 2 gusting 6 10.0
2018-Oct-21 20:50 249 1 gusting 4 10.0
2018-Oct-21 20:44 269 1 gusting 4 10.0
2018-Oct-21 20:39 284 0 gusting 3 10.0
2018-Oct-21 20:34 269 0 gusting 2 10.0
2018-Oct-21 20:29 270 10.0
2018-Oct-21 20:24 346 10.0
2018-Oct-21 20:19 346 10.0
2018-Oct-21 20:14 346 10.0
2018-Oct-21 20:09 346 10.0
2018-Oct-21 20:04 345 10.0
2018-Oct-21 19:58 346 10.0
2018-Oct-21 19:53 345 10.0
2018-Oct-21 19:48 345 10.0
2018-Oct-21 19:43 346 10.6
2018-Oct-21 19:38 345 10.6
2018-Oct-21 19:33 316 10.6
2018-Oct-21 19:28 316 10.6
2018-Oct-21 19:23 316 10.6
2018-Oct-21 19:18 316 10.6
2018-Oct-21 19:13 316 10.6
2018-Oct-21 19:08 316 10.6
2018-Oct-21 19:02 316 10.6
2018-Oct-21 18:57 316 10.6
2018-Oct-21 18:52 316 10.6
2018-Oct-21 18:47 316 10.6
2018-Oct-21 18:42 316 10.6
2018-Oct-21 18:37 316 10.6
2018-Oct-21 18:32 316 11.1
2018-Oct-21 18:27 316 11.1
2018-Oct-21 18:22 316 11.1
2018-Oct-21 18:17 316 11.1
2018-Oct-21 18:12 316 11.1
2018-Oct-21 18:06 316 11.1
2018-Oct-21 18:01 273 11.1
2018-Oct-21 17:56 270 0 gusting 1 11.1
2018-Oct-21 17:51 283 0 gusting 1 11.1
2018-Oct-21 17:46 264 0 gusting 1 11.1
2018-Oct-21 17:41 249 0 gusting 1 11.1
2018-Oct-21 17:36 256 0 gusting 2 11.1
2018-Oct-21 17:31 277 1 gusting 2 11.1
2018-Oct-21 17:26 262 1 gusting 2 11.1
2018-Oct-21 17:21 288 0 gusting 2 11.1
2018-Oct-21 17:15 284 0 gusting 2 11.1
2018-Oct-21 17:10 309 0 gusting 2 11.1
2018-Oct-21 17:05 263 1 gusting 2 11.1
2018-Oct-21 17:00 269 1 gusting 2 11.1
2018-Oct-21 16:55 266 1 gusting 3 11.1
2018-Oct-21 16:50 280 1 gusting 3 11.1
2018-Oct-21 16:45 290 1 gusting 2 11.1
2018-Oct-21 16:40 252 0 gusting 2 11.1
2018-Oct-21 16:35 311 0 gusting 2 11.7
2018-Oct-21 16:30 290 1 gusting 3 11.7
2018-Oct-21 16:25 255 1 gusting 3 11.7
2018-Oct-21 16:20 245 0 gusting 2 11.7
2018-Oct-21 16:15 231 1 gusting 4 11.7
2018-Oct-21 16:10 284 1 gusting 4 11.7
2018-Oct-21 16:04 269 1 gusting 4 11.7
2018-Oct-21 15:59 250 1 gusting 4 12.2
2018-Oct-21 15:54 277 1 gusting 5 12.2
2018-Oct-21 15:49 278 1 gusting 3 12.8
2018-Oct-21 15:44 262 0 gusting 2 12.8
2018-Oct-21 15:39 348 0 gusting 2 12.8
2018-Oct-21 15:34 273 0 gusting 2 12.8
2018-Oct-21 15:29 341 0 gusting 1 13.3
2018-Oct-21 15:24 337 0 gusting 1 13.3
2018-Oct-21 15:19 043 13.9
2018-Oct-21 15:14 049 13.9
2018-Oct-21 15:08 049 0 gusting 1 14.4
2018-Oct-21 15:03 075 0 gusting 1 14.4
2018-Oct-21 14:58 060 14.4
2018-Oct-21 14:53 121 14.4
2018-Oct-21 14:48 122 0 gusting 3 14.4
2018-Oct-21 14:43 123 0 gusting 3 14.4
2018-Oct-21 14:38 128 0 gusting 2 14.4
2018-Oct-21 14:33 053 0 gusting 3 15.0
2018-Oct-21 14:27 081 0 gusting 3 15.0
2018-Oct-21 14:22 086 1 gusting 5 15.0
2018-Oct-21 14:17 138 1 gusting 5 15.0
2018-Oct-21 14:12 158 0 gusting 3 15.0
2018-Oct-21 14:07 141 0 gusting 3 15.0
2018-Oct-21 14:02 129 1 gusting 4 15.0
2018-Oct-21 13:57 122 1 gusting 4 15.6
2018-Oct-21 13:52 094 1 gusting 4 15.6
2018-Oct-21 13:46 125 1 gusting 4 15.6
2018-Oct-21 13:41 123 0 gusting 4 15.6
2018-Oct-21 13:36 143 1 gusting 4 15.6
2018-Oct-21 13:31 134 1 gusting 4 15.6
2018-Oct-21 13:26 143 1 gusting 4 15.6
2018-Oct-21 13:21 105 1 gusting 5 16.1
2018-Oct-21 13:16 084 1 gusting 4 16.1
2018-Oct-21 13:11 090 1 gusting 4 16.1
2018-Oct-21 13:05 152 2 gusting 5 16.1
2018-Oct-21 13:00 135 2 gusting 6 16.1
2018-Oct-21 12:55 134 2 gusting 6 16.1
2018-Oct-21 12:50 088 2 gusting 5 16.1
2018-Oct-21 12:45 154 1 gusting 5 16.7
2018-Oct-21 12:40 131 1 gusting 5 16.7
2018-Oct-21 12:35 076 1 gusting 4 16.7
2018-Oct-21 12:30 099 1 gusting 3 17.2
2018-Oct-21 12:24 259 1 gusting 4 17.2
2018-Oct-21 12:19 139 1 gusting 4 17.2
2018-Oct-21 12:14 115 0 gusting 3 17.2
2018-Oct-21 12:09 141 0 gusting 3 17.2
2018-Oct-21 12:04 055 0 gusting 2 17.2
2018-Oct-21 11:59 148 0 gusting 3 17.2
2018-Oct-21 11:54 151 0 gusting 3 16.7
2018-Oct-21 11:48 064 0 gusting 2 16.7
2018-Oct-21 11:43 078 0 gusting 2 16.7
2018-Oct-21 11:38 089 17.2
2018-Oct-21 11:33 125 0 gusting 2 17.2
2018-Oct-21 11:28 253 0 gusting 2 17.2
2018-Oct-21 11:23 152 0 gusting 3 16.7
2018-Oct-21 11:18 238 1 gusting 3 16.7
2018-Oct-21 11:12 256 1 gusting 3 16.7
2018-Oct-21 11:07 298 1 gusting 4 16.7
2018-Oct-21 11:02 293 2 gusting 6 16.1